Regional Weather Roundup
Issued by NWS Upton, NY

Current Version | Previous Version | Text Only | Print | Product List | Glossary On
Versions: 1 2 3 4 5 6 7 8 9 10 11 12 13 14 15 16 17 18 19 20 21 22 23 24 25 26 27 28 29 30 31 32 33 34 35 36 37 38 39 40 41 42 43 44 45 46 47 48 49 50
000 ASUS41 KOKX 201505 RWROKX REGIONAL WEATHER ROUNDUP NATIONAL WEATHER SERVICE NEW YORK NY 1000 AM EST SAT DEC 20 2014 NOTE: "FAIR" INDICATES FEW OR NO CLOUDS BELOW 12,000 FEET WITH NO SIGNIFICANT WEATHER AND/OR OBSTRUCTIONS TO VISIBILITY. NYZ071-072-176-178-NJZ106-104-201600- NEW YORK CITY METRO AREA CITY SKY/WX TMP DP RH WIND PRES REMARKS CENTRAL PARK CLOUDY 31 18 58 CALM 30.33R LAGUARDIA APRT CLOUDY 31 20 63 N7 30.31R WCI 24 KENNEDY INTL CLOUDY 32 19 58 N8 30.32R WCI 25 NEWARK/LIBERTY CLOUDY 31 21 66 N6 30.32R WCI 25 BRNX BOT. GARD N/A N/A N/A N/A NW2 30.32R TETERBORO CLOUDY 31 19 61 N6 30.31R WCI 25 $$ NYZ177-179-078>081-201600- LONG ISLAND NEW YORK CITY SKY/WX TMP DP RH WIND PRES REMARKS FARMINGDALE CLOUDY 32 21 64 NW6 30.30R WCI 26 ISLIP CLOUDY 32 21 64 NW9 30.27R WCI 24 SHIRLEY CLOUDY 32 22 66 N10 30.28S WCI 24 WESTHAMPTON CLOUDY 32 22 66 N10 30.28S WCI 24 MONTAUK POINT N/A 34 25 69 VRB6 30.27S WCI 29 $$ NYZ052-065-067-201600- HUDSON VALLEY CITY SKY/WX TMP DP RH WIND PRES REMARKS WHITE PLAINS CLOUDY 29 19 66 VRB3 30.27R NEWBURGH CLOUDY 27 21 80 NE6 30.29R WCI 20 MONTGOMERY CLOUDY 29 19 66 NE9 30.28R WCI 20 POUGHKEEPSIE CLOUDY 29 18 63 N9 30.30S WCI 20 ALBANY PTSUNNY 25 16 68 NW5 30.34R WCI 19 $$ NJZ001-105-106-008-010-013-015-019>022-104-201600- NEW JERSEY CITY SKY/WX TMP DP RH WIND PRES REMARKS NEWARK/LIBERTY CLOUDY 31 21 66 N6 30.32R WCI 25 TETERBORO CLOUDY 31 19 61 N6 30.31R WCI 25 CALDWELL CLOUDY 30 20 66 NW3 30.32R MORRISTOWN CLOUDY 32 23 69 CALM 30.31R SOMERVILLE CLOUDY 32 20 61 N3 30.30R SUSSEX CLOUDY 29 21 72 E5 30.28R WCI 24 ANDOVER N/A 29 20 69 N3 30.29R TRENTON CLOUDY 31 19 61 NE3 30.30S MILLVILLE CLOUDY 33 23 66 NE5 30.32R WCI 29 ATLANTIC CITY CLOUDY 33 23 66 N8 30.31R WCI 26 WRIGHTSTOWN CLOUDY 32 21 65 N9 30.28S WCI 24 TOMS RIVER CLOUDY 32 21 64 NW9 30.30S WCI 24 BELMAR CLOUDY 32 18 55 W7 30.30S WCI 26 $$ PAZ047>061-062-071-201600- EASTERN PENNSYLVANIA CITY SKY/WX TMP DP RH WIND PRES REMARKS PHILADELPHIA CLOUDY 33 21 61 NW5 30.33R WCI 29 ALLENTOWN CLOUDY 32 20 61 NE5 30.30R WCI 27 SCRANTON CLOUDY 30 20 66 N7 30.26R WCI 23 $$ CTZ002-004>006-009-010-012-RIZ004-006-007-MAZ004-011-015-201600- SOUTHERN NEW ENGLAND IN CT CITY SKY/WX TMP DP RH WIND PRES REMARKS BRADLEY INTL CLOUDY 28 18 66 NE7 30.29R WCI 21 HARTFORD CLOUDY 28 19 69 N10 30.29S WCI 19 DANBURY CLOUDY 29 17 61 N5 30.28R WCI 24 WTRBRY/OXFORD PTSUNNY 28 16 59 NE8 30.25S WCI 20 BRIDGEPORT CLOUDY 32 21 64 N5 30.28S WCI 27 MERIDEN CLOUDY 29 19 66 VRB5 30.28S WCI 24 NEW HAVEN CLOUDY 33 21 61 N9 30.28R WCI 25 CHESTER CLOUDY 30 21 69 N5 30.26S WCI 25 GROTON CLOUDY 30 23 75 N8 30.27S WCI 22 WILLIMANTIC CLOUDY 31 21 66 N5 30.28R WCI 26 IN RI CITY SKY/WX TMP DP RH WIND PRES REMARKS PROVIDENCE CLOUDY 32 22 66 N10 30.28S WCI 24 BLOCK ISLAND CLOUDY 32 25 74 N6 30.25S WCI 26 WESTERLY CLOUDY 31 23 72 N3 30.27S IN MA CITY SKY/WX TMP DP RH WIND PRES REMARKS BOSTON PTSUNNY 30 22 72 NW9 30.30S WCI 22 WORCESTER MOSUNNY 28 16 60 N7 30.25R WCI 21 WESTFIELD CLOUDY 27 17 66 N8 30.29S WCI 19 PROVINCETOWN CLOUDY 39 32 75 N7 30.26S WCI 34 NANTUCKET CLOUDY 39 33 79 N9 30.24S WCI 33 $$ ANZ330-335-338-340-345-350-353-355-201600- COASTAL MARINE OBSERVATIONS STATION/POSITION TIME SKY/WX TEMP WIND PRES VSBY WAVE AIR SEA DIR/SP/G HT/PER (UTC) (F) (DEG/KT/KT) (MB) (MI) (FT/S) NY HARB ENTRANCE 1500 33 46 340/ 8/ 10 1026.5 1/12 4S FIRE IS 1500 46 N/A 1/11 20S FIRE ISLAND 1400 35 49 1025.4 1/ 3 23SW MTP 1500 N/A 1/11 HUDSON CANYON 1500 38 54 330/ 8/ 12 1024.4 2/ 4 EXECUTION ROCKS NOT AVBL WESTERN LI SOUND NOT AVBL CENTRAL LI SOUND NOT AVBL EASTERN LI SOUND NOT AVBL ROBBINS REEF 1500 31 200/ 5/ 8 1025.2 $$ >>>>>>>>>>>>>>>>>>>>>>>>>>>> KEY <<<<<<<<<<<<<<<<<<<<<<<<<<< > < > SKY/WX - SKY CONDITION/PRESENT WEATHER < > TMP - TEMPERATURE IN FAHRENHEIT < > DP - DEWPOINT IN FAHRENHEIT < > RH - RELATIVE HUMIDITY IN PERCENT < > WIND - DIRECTION AND SPEED IN MPH < > PRES - MEAN SEA LEVEL PRESSURE IN INCHES OF HG < > WCI - WIND CHILL INDEX < > VSB - VISIBILITY IN MILES < > HX - HEAT INDEX < > TC - TEMPERATURE IN CELSIUS < > VRB - VARIABLE WIND DIRECTION < > < >>>>>>>>>>>>>>>>>>>>>>>>>>>> KEY <<<<<<<<<<<<<<<<<<<<<<<<<<<

USA.gov is the U.S. government's official web portal to all federal, state and local government web resources and services.